User: anonymous   Login
Location: Caltech
(34.1382°N, 118.1253°W)
Time: 16:58:40
(UTC-07:00)
Language:

Cosmos 1975 - Orbit

View from above orbital plane
View from above orbital plane
View from above satellite
View from above satellite

Ground track
Ground track

The orbit data is extracted from the following two-line orbital elements,

1 19573U 88093A   17173.92539208 +.00000477 +00000-0 +32262-4 0  9997
2 19573 082.5193 339.9281 0012810 281.2461 078.7325 15.04172501539539
Epoch (UTC): 22 June 2017 22:12:33
Eccentricity: 0.0012810
inclination: 82.5193°
perigee height: 545 km
apogee height: 563 km
right ascension of ascending node: 339.9281°
argument of perigee: 281.2461°
revolutions per day: 15.04172501
mean anomaly at epoch: 78.7325°
orbit number at epoch: 53953

The dashed part of the orbit path shows where the satellite is in the earth's shadow,  

DLR